Location: Home
(42.5358°N, 72.7383°W)
Time: 05:43:06
(UTC-05:00)

Courier 1B - Pass Details

Date: 04 December 2021
Orbit: 962 x 1209 km, 28.3° (Epoch: 25 January)

Event Time Altitude Azimuth Distance (km) Brightness Sun altitude
Rises 15:48:15 0° 223° (SW) 4,061 12.9 3.8°
Reaches altitude 10° 15:52:01 10° 207° (SSW) 3,067 11.4 3.2°
Maximum altitude 15:57:06 20° 165° (SSE) 2,380 9.8 2.4°
Drops below altitude 10° 16:02:01 10° 122° (ESE) 2,955 9.8 1.7°
Sets 16:05:33 0° 105° (ESE) 3,866 10.2 1.1°
